Skip Page Navigation
NASA JPL Caltech
NASA Logo - Jet Propulsion Laboratory + View the NASA Portal
+ Center for Near-Earth Object Studies
JPL Home Earth Solar System Stars & Galaxies Technology
JPL Solar System Dynamics
BODIES ORBITS EPHEMERIDES TOOLS PHYSICAL DATA DISCOVERY FAQ SITE MAP
IMPORTANT: The SSD Announcement email list is now available. Major changes are coming in the near future, including possible hostname and/or URL changes. To be notified of such changes, subscribe to this email list.

Please visit this page for more details.


JPL Small-Body Database Browser
Search: [ help ]  
173917 (2001 VE56)
Classification: Main-belt Asteroid          SPK-ID: 2173917
Ephemeris | Orbit Diagram | Orbital Elements | Mission Design | Physical Parameters | Discovery Circumstances | Close-Approach Data ]

[ show orbit diagram ]
Orbital Elements at Epoch 2458600.5 (2019-Apr-27.0) TDB
Reference: JPL 12 (heliocentric ecliptic J2000)
 Element Value Uncertainty (1-sigma)   Units 
e .2826509729669424 4.9906e-08  
a 3.154821295549309 3.3423e-08 au
q 2.263107986825467 1.569e-07 au
i 13.54932314939202 1.1756e-05 deg
node 28.35653505132487 3.021e-05 deg
peri 68.1605767328325 4.0756e-05 deg
M 15.22638753853246 2.3474e-05 deg
tp 2458513.932485005610
(2019-Jan-30.43248501)
0.00013277 TDB
period 2046.730080862241
5.60
3.2525e-05
8.905e-08
d
yr
n .1758903156630894 2.7951e-09 deg/d
Q 4.046534604273151 4.287e-08 au
  Orbit Determination Parameters
   # obs. used (total)      248  
   data-arc span      6318 days (17.30 yr)  
   first obs. used      2001-09-22  
   last obs. used      2019-01-09  
   planetary ephem.      DE431  
   SB-pert. ephem.      SB431-N16  
   condition code      0  
   norm. resid. RMS      .65607  
   source      ORB  
   producer      Otto Matic  
   solution date      2019-Jul-13 10:18:53  

Additional Information
 Earth MOID = 1.31951 au 
 Jupiter MOID = 1.55346 au 
 T_jup = 3.102 
[ show covariance matrix ]

Ephemeris | Orbit Diagram | Orbital Elements | Mission Design | Physical Parameters | Discovery Circumstances | Close-Approach Data ]

Physical Parameter Table
Parameter Symbol Value Units Sigma Reference Notes
absolute magnitude H 15.7   n/a MPO454194  

173917 (2001 VE56)          Discovered 2001-Nov-10 by LINEAR at Socorro
Reference: 20080122/Numbers.arcLast Updated: 2008-01-28

[ show close-approach data ]
Ephemeris | Orbit Diagram | Orbital Elements | Mission Design | Physical Parameters | Discovery Circumstances | Close-Approach Data ]
ABOUT SSD CREDITS/AWARDS PRIVACY/COPYRIGHT GLOSSARY LINKS
FirstGov 2019-Dec-16 02:36 UT
(server date/time)  
NASA Home Page
Site Manager:   Ryan S. Park
Webmaster  Alan B. Chamberlin